Time,TemperatureF,DewpointF,PressureIn,WindDirection,WindDirectionDegrees,WindSpeedMPH,WindSpeedGustMPH,Humidity,HourlyPrecipIn,Conditions,Clouds,dailyrainin,SoftwareType,DateUTC
2013-05-14 00:04:00,33.6,32.0,28.41,South,187,0.0,1.0,93,0.00,,,0.00,weatherlink.com 1.10,2013-05-14 04:04:00,
2013-05-14 00:19:00,34.2,32.0,28.41,SSW,192,0.0,1.0,92,0.00,,,0.00,weatherlink.com 1.10,2013-05-14 04:19:00,
2013-05-14 00:34:00,34.5,32.0,28.41,SW,221,0.0,1.0,91,0.00,,,0.00,weatherlink.com 1.10,2013-05-14 04:34:00,
2013-05-14 00:49:00,34.4,32.0,28.41,SW,218,0.0,3.0,91,0.00,,,0.00,weatherlink.com 1.10,2013-05-14 04:49:00,
2013-05-14 01:04:00,33.9,32.0,28.41,SW,215,0.0,2.0,91,0.00,,,0.00,weatherlink.com 1.10,2013-05-14 05:04:00,
2013-05-14 01:19:00,33.5,32.0,28.41,SW,233,1.0,3.0,92,0.00,,,0.00,weatherlink.com 1.10,2013-05-14 05:19:00,
2013-05-14 01:34:00,32.9,31.0,28.41,SW,231,0.0,1.0,92,0.00,,,0.00,weatherlink.com 1.10,2013-05-14 05:34:00,
2013-05-14 01:49:00,32.5,31.0,28.41,WSW,238,1.0,3.0,92,0.00,,,0.00,weatherlink.com 1.10,2013-05-14 05:49:00,
2013-05-14 02:05:00,31.8,30.0,28.42,WSW,238,0.0,1.0,93,0.00,,,0.00,weatherlink.com 1.10,2013-05-14 06:05:00,
2013-05-14 02:20:00,31.5,30.0,28.42,SW,235,0.0,1.0,93,0.00,,,0.00,weatherlink.com 1.10,2013-05-14 06:20:00,
2013-05-14 02:35:00,31.0,29.0,28.42,SW,235,0.0,1.0,93,0.00,,,0.00,weatherlink.com 1.10,2013-05-14 06:35:00,
2013-05-14 02:50:00,30.9,29.0,28.42,SW,223,0.0,1.0,94,0.00,,,0.00,weatherlink.com 1.10,2013-05-14 06:50:00,
2013-05-14 03:05:00,30.4,29.0,28.42,SW,222,0.0,1.0,94,0.00,,,0.00,weatherlink.com 1.10,2013-05-14 07:05:00,
2013-05-14 03:20:00,30.2,29.0,28.42,SW,222,1.0,1.0,94,0.00,,,0.00,weatherlink.com 1.10,2013-05-14 07:20:00,
2013-05-14 03:35:00,30.1,29.0,28.42,SW,236,2.0,2.0,95,0.00,,,0.00,weatherlink.com 1.10,2013-05-14 07:35:00,
2013-05-14 03:50:00,29.8,29.0,28.42,SW,232,0.0,1.0,95,0.00,,,0.00,weatherlink.com 1.10,2013-05-14 07:50:00,
2013-05-14 04:05:00,29.7,29.0,28.42,SW,231,0.0,1.0,95,0.00,,,0.00,weatherlink.com 1.10,2013-05-14 08:05:00,
2013-05-14 04:20:00,29.7,29.0,28.41,WSW,240,0.0,2.0,95,0.00,,,0.00,weatherlink.com 1.10,2013-05-14 08:20:00,
2013-05-14 04:35:00,29.6,28.0,28.41,SW,235,0.0,2.0,95,0.00,,,0.00,weatherlink.com 1.10,2013-05-14 08:35:00,
2013-05-14 04:50:00,29.3,28.0,28.41,SW,235,0.0,1.0,95,0.00,,,0.00,weatherlink.com 1.10,2013-05-14 08:50:00,
2013-05-14 05:05:00,29.1,28.0,28.42,SW,235,0.0,1.0,95,0.00,,,0.00,weatherlink.com 1.10,2013-05-14 09:05:00,
2013-05-14 05:20:00,28.8,28.0,28.42,SW,235,0.0,0.0,95,0.00,,,0.00,weatherlink.com 1.10,2013-05-14 09:20:00,
2013-05-14 05:35:00,28.8,28.0,28.42,SW,235,0.0,1.0,95,0.00,,,0.00,weatherlink.com 1.10,2013-05-14 09:35:00,
2013-05-14 05:50:00,28.6,27.0,28.43,SW,224,1.0,1.0,95,0.00,,,0.00,weatherlink.com 1.10,2013-05-14 09:50:00,
2013-05-14 06:05:00,28.8,28.0,28.43,SW,224,0.0,2.0,96,0.00,,,0.00,weatherlink.com 1.10,2013-05-14 10:05:00,
2013-05-14 06:20:00,28.9,28.0,28.43,SW,228,0.0,2.0,95,0.00,,,0.00,weatherlink.com 1.10,2013-05-14 10:20:00,
2013-05-14 06:35:00,29.0,28.0,28.43,SW,233,0.0,2.0,95,0.00,,,0.00,weatherlink.com 1.10,2013-05-14 10:35:00,
2013-05-14 06:50:00,29.0,28.0,28.43,SW,233,1.0,1.0,95,0.00,,,0.00,weatherlink.com 1.10,2013-05-14 10:50:00,
2013-05-14 07:05:00,29.5,28.0,28.43,SW,218,0.0,1.0,95,0.00,,,0.00,weatherlink.com 1.10,2013-05-14 11:05:00,
2013-05-14 07:20:00,30.3,29.0,28.43,SW,219,0.0,1.0,95,0.00,,,0.00,weatherlink.com 1.10,2013-05-14 11:20:00,
2013-05-14 07:35:00,31.0,30.0,28.43,SW,231,0.0,1.0,95,0.00,,,0.00,weatherlink.com 1.10,2013-05-14 11:35:00,
2013-05-14 07:50:00,32.6,32.0,28.43,SW,231,0.0,0.0,96,0.00,,,0.00,weatherlink.com 1.10,2013-05-14 11:50:00,
2013-05-14 08:05:00,34.2,33.0,28.44,SW,228,0.0,1.0,95,0.00,,,0.00,weatherlink.com 1.10,2013-05-14 12:05:00,
2013-05-14 08:20:00,36.4,34.0,28.43,SW,217,0.0,1.0,92,0.00,,,0.00,weatherlink.com 1.10,2013-05-14 12:20:00,
2013-05-14 08:35:00,38.3,35.0,28.43,SW,217,0.0,1.0,89,0.00,,,0.00,weatherlink.com 1.10,2013-05-14 12:35:00,
2013-05-14 08:50:00,41.2,37.0,28.43,SW,228,0.0,1.0,85,0.00,,,0.00,weatherlink.com 1.10,2013-05-14 12:50:00,
2013-05-14 09:05:00,44.2,39.0,28.42,SE,141,0.0,1.0,81,0.00,,,0.00,weatherlink.com 1.10,2013-05-14 13:05:00,
2013-05-14 09:20:00,48.5,38.0,28.42,ESE,117,2.0,3.0,67,0.00,,,0.00,weatherlink.com 1.10,2013-05-14 13:20:00,
2013-05-14 09:35:00,50.8,40.0,28.41,South,184,1.0,2.0,67,0.00,,,0.00,weatherlink.com 1.10,2013-05-14 13:35:00,
2013-05-14 09:50:00,51.0,39.0,28.40,South,177,0.0,1.0,64,0.00,,,0.00,weatherlink.com 1.10,2013-05-14 13:50:00,
2013-05-14 10:05:00,53.7,37.0,28.40,South,172,0.0,5.0,53,0.00,,,0.00,weatherlink.com 1.10,2013-05-14 14:05:00,
2013-05-14 10:20:00,56.3,37.0,28.39,ESE,105,2.0,6.0,49,0.00,,,0.00,weatherlink.com 1.10,2013-05-14 14:20:00,
2013-05-14 10:35:00,58.4,39.0,28.38,SSE,150,0.0,3.0,48,0.00,,,0.00,weatherlink.com 1.10,2013-05-14 14:35:00,
2013-05-14 10:50:00,60.2,38.0,28.38,South,186,0.0,2.0,44,0.00,,,0.00,weatherlink.com 1.10,2013-05-14 14:50:00,
2013-05-14 11:05:00,60.7,38.0,28.37,SW,226,0.0,3.0,43,0.01,,,0.01,weatherlink.com 1.10,2013-05-14 15:05:00,
2013-05-14 11:20:00,61.6,43.0,28.36,South,187,1.0,3.0,51,0.01,,,0.01,weatherlink.com 1.10,2013-05-14 15:20:00,
2013-05-14 11:36:00,63.2,38.0,28.36,SSE,156,1.0,2.0,39,0.01,,,0.01,weatherlink.com 1.10,2013-05-14 15:36:00,
2013-05-14 11:51:00,65.9,41.0,28.35,SE,128,1.0,4.0,41,0.01,,,0.01,weatherlink.com 1.10,2013-05-14 15:51:00,
2013-05-14 12:06:00,66.0,36.0,28.36,NW,309,2.0,8.0,33,0.00,,,0.01,weatherlink.com 1.10,2013-05-14 16:06:00,
2013-05-14 12:21:00,61.9,34.0,28.36,SSW,201,2.0,9.0,35,0.00,,,0.01,weatherlink.com 1.10,2013-05-14 16:21:00,
2013-05-14 12:36:00,63.3,33.0,28.35,SSW,198,0.0,5.0,32,0.00,,,0.01,weatherlink.com 1.10,2013-05-14 16:36:00,
2013-05-14 12:51:00,62.1,33.0,28.34,SW,222,0.0,3.0,34,0.00,,,0.01,weatherlink.com 1.10,2013-05-14 16:51:00,
2013-05-14 13:06:00,61.0,31.0,28.34,SSW,207,0.0,2.0,32,0.00,,,0.01,weatherlink.com 1.10,2013-05-14 17:06:00,
2013-05-14 13:21:00,61.9,34.0,28.34,SSW,200,1.0,2.0,35,0.00,,,0.01,weatherlink.com 1.10,2013-05-14 17:21:00,
2013-05-14 13:36:00,60.8,30.0,28.33,South,174,0.0,1.0,31,0.00,,,0.01,weatherlink.com 1.10,2013-05-14 17:36:00,
2013-05-14 13:51:00,60.5,34.0,28.33,SSW,197,0.0,1.0,37,0.00,,,0.01,weatherlink.com 1.10,2013-05-14 17:51:00,
2013-05-14 14:06:00,61.5,36.0,28.32,South,176,0.0,1.0,39,0.00,,,0.01,weatherlink.com 1.10,2013-05-14 18:06:00,
2013-05-14 14:21:00,62.7,35.0,28.31,SSE,150,1.0,7.0,35,0.00,,,0.01,weatherlink.com 1.10,2013-05-14 18:21:00,
2013-05-14 14:36:00,63.7,37.0,28.30,South,178,2.0,6.0,38,0.00,,,0.01,weatherlink.com 1.10,2013-05-14 18:36:00,
2013-05-14 14:51:00,67.3,37.0,28.29,SSE,159,0.0,6.0,33,0.00,,,0.01,weatherlink.com 1.10,2013-05-14 18:51:00,
2013-05-14 15:06:00,69.4,37.0,28.29,South,174,2.0,5.0,30,0.00,,,0.01,weatherlink.com 1.10,2013-05-14 19:06:00,
2013-05-14 15:21:00,68.8,32.0,28.28,South,184,0.0,3.0,26,0.00,,,0.01,weatherlink.com 1.10,2013-05-14 19:21:00,
2013-05-14 15:36:00,68.3,37.0,28.28,SSE,156,1.0,6.0,32,0.00,,,0.01,weatherlink.com 1.10,2013-05-14 19:36:00,
2013-05-14 15:51:00,67.6,37.0,28.27,South,183,1.0,6.0,33,0.00,,,0.01,weatherlink.com 1.10,2013-05-14 19:51:00,
2013-05-14 16:06:00,68.4,37.0,28.26,South,183,0.0,5.0,32,0.00,,,0.01,weatherlink.com 1.10,2013-05-14 20:06:00,
2013-05-14 16:21:00,68.3,37.0,28.26,South,184,0.0,4.0,32,0.00,,,0.00,weatherlink.com 1.10,2013-05-14 20:21:00,
2013-05-14 16:36:00,69.4,39.0,28.26,SSE,153,1.0,3.0,33,0.00,,,0.00,weatherlink.com 1.10,2013-05-14 20:36:00,
2013-05-14 16:51:00,67.7,40.0,28.25,SSE,157,3.0,6.0,36,0.00,,,0.00,weatherlink.com 1.10,2013-05-14 20:51:00,
2013-05-14 17:06:00,66.0,38.0,28.26,South,181,1.0,4.0,36,0.00,,,0.00,weatherlink.com 1.10,2013-05-14 21:06:00,
2013-05-14 17:21:00,65.2,39.0,28.25,South,186,1.0,4.0,38,0.00,,,0.00,weatherlink.com 1.10,2013-05-14 21:21:00,
2013-05-14 17:36:00,64.6,39.0,28.25,SSW,198,0.0,1.0,39,0.00,,,0.00,weatherlink.com 1.10,2013-05-14 21:36:00,
2013-05-14 17:51:00,64.1,39.0,28.25,South,186,0.0,1.0,40,0.00,,,0.00,weatherlink.com 1.10,2013-05-14 21:51:00,
2013-05-14 18:06:00,63.0,40.0,28.25,South,186,0.0,1.0,43,0.00,,,0.00,weatherlink.com 1.10,2013-05-14 22:06:00,
2013-05-14 18:21:00,62.0,47.0,28.24,SSW,195,0.0,1.0,58,0.00,,,0.00,weatherlink.com 1.10,2013-05-14 22:21:00,
2013-05-14 18:36:00,61.1,48.0,28.23,SSW,195,0.0,1.0,63,0.00,,,0.00,weatherlink.com 1.10,2013-05-14 22:36:00,
2013-05-14 18:52:00,60.0,44.0,28.23,WSW,238,0.0,4.0,56,0.00,,,0.00,weatherlink.com 1.10,2013-05-14 22:52:00,
2013-05-14 19:07:00,59.0,47.0,28.22,NNW,336,1.0,2.0,64,0.00,,,0.00,weatherlink.com 1.10,2013-05-14 23:07:00,
2013-05-14 19:22:00,57.7,44.0,28.25,SSW,194,0.0,3.0,61,0.00,,,0.00,weatherlink.com 1.10,2013-05-14 23:22:00,
2013-05-14 19:37:00,56.7,47.0,28.24,SSW,208,0.0,1.0,71,0.00,,,0.00,weatherlink.com 1.10,2013-05-14 23:37:00,
2013-05-14 19:52:00,55.5,46.0,28.24,NW,326,0.0,3.0,71,0.00,,,0.00,weatherlink.com 1.10,2013-05-14 23:52:00,
2013-05-14 20:07:00,54.6,47.0,28.24,NW,326,0.0,0.0,76,0.00,,,0.00,weatherlink.com 1.10,2013-05-15 00:07:00,
2013-05-14 20:22:00,54.0,49.0,28.23,NNW,328,0.0,1.0,82,0.00,,,0.00,weatherlink.com 1.10,2013-05-15 00:22:00,
2013-05-14 20:37:00,52.6,49.0,28.25,NNW,336,0.0,2.0,87,0.01,,,0.01,weatherlink.com 1.10,2013-05-15 00:37:00,
2013-05-14 20:52:00,51.7,48.0,28.25,SSW,203,0.0,1.0,88,0.01,,,0.01,weatherlink.com 1.10,2013-05-15 00:52:00,
2013-05-14 21:07:00,51.0,48.0,28.25,SSW,203,0.0,0.0,90,0.01,,,0.01,weatherlink.com 1.10,2013-05-15 01:07:00,
2013-05-14 21:22:00,50.6,48.0,28.25,SSW,203,0.0,1.0,92,0.01,,,0.01,weatherlink.com 1.10,2013-05-15 01:22:00,
2013-05-14 21:37:00,50.5,48.0,28.26,SSW,203,0.0,1.0,92,0.00,,,0.01,weatherlink.com 1.10,2013-05-15 01:37:00,
2013-05-14 21:52:00,50.5,49.0,28.26,South,183,0.0,1.0,93,0.00,,,0.01,weatherlink.com 1.10,2013-05-15 01:52:00,
2013-05-14 22:07:00,50.1,48.0,28.26,South,183,0.0,1.0,93,0.00,,,0.01,weatherlink.com 1.10,2013-05-15 02:07:00,
2013-05-14 22:22:00,50.0,48.0,28.25,South,183,0.0,1.0,93,0.00,,,0.01,weatherlink.com 1.10,2013-05-15 02:22:00,
2013-05-14 22:37:00,49.9,48.0,28.26,NNW,333,0.0,1.0,94,0.00,,,0.01,weatherlink.com 1.10,2013-05-15 02:37:00,
2013-05-14 22:52:00,50.0,48.0,28.26,NNW,339,0.0,0.0,93,0.00,,,0.01,weatherlink.com 1.10,2013-05-15 02:52:00,
2013-05-14 23:07:00,50.2,48.0,28.26,NNW,340,0.0,2.0,93,0.00,,,0.01,weatherlink.com 1.10,2013-05-15 03:07:00,
2013-05-14 23:22:00,49.9,48.0,28.25,NNW,340,0.0,0.0,93,0.00,,,0.01,weatherlink.com 1.10,2013-05-15 03:22:00,
2013-05-14 23:37:00,48.9,47.0,28.24,NNW,340,0.0,0.0,93,0.00,,,0.01,weatherlink.com 1.10,2013-05-15 03:37:00,
2013-05-14 23:52:00,47.8,46.0,28.24,NNW,340,0.0,0.0,93,0.00,,,0.01,weatherlink.com 1.10,2013-05-15 03:52:00,